TimeMDT,TemperatureF,Dew PointF,Humidity,Sea Level PressureIn,VisibilityMPH,Wind Direction,Wind SpeedMPH,Gust SpeedMPH,PrecipitationIn,Events,Conditions,WindDirDegrees,DateUTC
12:53 AM,57.9,50.0,75,29.88,9.0,South,9.2,-,N/A,,Clear,180,2013-08-18 06:53:00
1:53 AM,53.1,41.0,64,29.89,10.0,SSE,11.5,-,N/A,,Clear,160,2013-08-18 07:53:00
2:53 AM,53.1,37.0,55,29.89,10.0,South,8.1,-,N/A,,Clear,170,2013-08-18 08:53:00
3:53 AM,54.0,35.1,49,29.90,10.0,SSE,5.8,-,N/A,,Clear,160,2013-08-18 09:53:00
4:53 AM,55.0,35.1,47,29.91,10.0,SSW,4.6,-,N/A,,Clear,210,2013-08-18 10:53:00
5:53 AM,54.0,35.1,49,29.92,10.0,SSW,10.4,-,N/A,,Clear,200,2013-08-18 11:53:00
6:53 AM,55.9,35.1,45,29.93,10.0,SSW,3.5,-,N/A,,Clear,200,2013-08-18 12:53:00
7:53 AM,66.0,37.0,34,29.93,10.0,SSW,8.1,-,N/A,,Clear,210,2013-08-18 13:53:00
8:53 AM,73.0,37.0,27,29.93,10.0,SW,15.0,-,N/A,,Clear,220,2013-08-18 14:53:00
9:53 AM,78.1,36.0,22,29.91,10.0,SW,13.8,-,N/A,,Clear,230,2013-08-18 15:53:00
10:53 AM,80.1,35.1,20,29.91,10.0,WSW,13.8,21.9,N/A,,Clear,250,2013-08-18 16:53:00
11:41 AM,82.4,33.8,17,30.29,10.0,WNW,19.6,25.3,N/A,,Clear,300,2013-08-18 17:41:00
11:53 AM,81.0,30.0,16,29.92,10.0,WNW,9.2,18.4,N/A,,Scattered Clouds,300,2013-08-18 17:53:00
12:53 PM,82.0,30.9,16,29.91,10.0,NNE,6.9,19.6,N/A,,Mostly Cloudy,20,2013-08-18 18:53:00
1:10 PM,82.4,30.2,15,30.27,10.0,NNW,6.9,-,N/A,Thunderstorm,Partly Cloudy,340,2013-08-18 19:10:00
1:25 PM,80.6,30.2,16,30.27,10.0,North,6.9,17.3,N/A,,Partly Cloudy,10,2013-08-18 19:25:00
1:50 PM,75.2,37.4,25,30.28,10.0,NW,16.1,23.0,0.00,Rain-Thunderstorm,Light Rain,320,2013-08-18 19:50:00
1:53 PM,75.9,37.0,24,29.96,10.0,NW,20.7,25.3,0.00,Rain-Thunderstorm,Light Rain,320,2013-08-18 19:53:00
2:37 PM,69.8,42.8,38,30.31,5.0,WNW,16.1,42.6,0.00,Rain,Light Rain,290,2013-08-18 20:37:00
2:53 PM,73.0,37.0,27,30.00,8.0,SE,8.1,18.4,0.00,Rain,Light Rain,140,2013-08-18 20:53:00
3:53 PM,75.9,37.0,24,29.96,10.0,SE,9.2,-,0.00,,Scattered Clouds,140,2013-08-18 21:53:00
4:53 PM,77.0,36.0,23,29.95,10.0,Calm,Calm,-,N/A,,Scattered Clouds,0,2013-08-18 22:53:00
5:53 PM,73.0,41.0,31,29.96,10.0,SSE,17.3,-,N/A,,Partly Cloudy,150,2013-08-18 23:53:00
6:53 PM,71.1,43.0,36,29.94,10.0,SSE,16.1,-,N/A,,Scattered Clouds,160,2013-08-19 00:53:00
7:53 PM,66.0,44.1,45,29.93,10.0,SSE,10.4,-,N/A,,Clear,160,2013-08-19 01:53:00
8:53 PM,64.0,43.0,46,29.94,10.0,SSW,9.2,-,N/A,,Mostly Cloudy,210,2013-08-19 02:53:00
9:53 PM,61.0,43.0,52,29.94,10.0,SSE,8.1,-,N/A,,Scattered Clouds,150,2013-08-19 03:53:00
10:53 PM,63.0,41.0,45,29.93,10.0,SSE,9.2,-,N/A,,Mostly Cloudy,160,2013-08-19 04:53:00
11:53 PM,60.1,41.0,49,29.94,10.0,South,9.2,-,N/A,,Clear,190,2013-08-19 05:53:00